BOX170 EDDP-EDDF

Flight info

Callsign BOX170
Flight time 0h 47m
Altitude 22000
Route ORTAG5E ORTAG T177 ODIPI/N0406F210 T157 KERAX KERAX5A
Aircraft B77L/H-SDE1E2E3FGHIJ2J3J4J5M1RWXYZ/LB1D1

Departure

Time 2026-05-07 01:51
Airport Leipzig/Halle Airport (EDDP)

Arrival

Time 2026-05-07 02:38
Airport Frankfurt Main Airport (EDDF)
Time Latitude Longitude Altitude Speed Heading
2026-05-07 01:27 51.40856 12.23865 464 ft 0 kts 86°
2026-05-07 01:41 51.40856 12.23864 470 ft 2 kts 86°
2026-05-07 01:42 51.40855 12.23840 465 ft 2 kts 86°
2026-05-07 01:42 51.40854 12.23818 468 ft 2 kts 86°
2026-05-07 01:42 51.40853 12.23796 463 ft 2 kts 85°
2026-05-07 01:42 51.40852 12.23774 463 ft 2 kts 85°
2026-05-07 01:43 51.40851 12.23752 463 ft 2 kts 85°
2026-05-07 01:43 51.40850 12.23730 463 ft 2 kts 85°
2026-05-07 01:43 51.40850 12.23726 463 ft 0 kts 85°
2026-05-07 01:45 51.40868 12.23784 467 ft 13 kts 50°
2026-05-07 01:45 51.40930 12.23785 466 ft 7 kts 328°
2026-05-07 01:45 51.40986 12.23753 470 ft 13 kts 349°
2026-05-07 01:46 51.41052 12.23663 471 ft 15 kts 263°
2026-05-07 01:46 51.41043 12.23446 472 ft 21 kts 266°
2026-05-07 01:46 51.41065 12.23302 471 ft 12 kts 328°
2026-05-07 01:46 51.41115 12.23210 471 ft 12 kts 276°
2026-05-07 01:47 51.41110 12.23038 474 ft 22 kts 266°
2026-05-07 01:47 51.41095 12.22741 468 ft 27 kts 265°
2026-05-07 01:47 51.41080 12.22436 464 ft 27 kts 265°
2026-05-07 01:47 51.41065 12.22131 464 ft 27 kts 265°
2026-05-07 01:48 51.41050 12.21827 464 ft 25 kts 266°
2026-05-07 01:48 51.41038 12.21556 461 ft 24 kts 266°
2026-05-07 01:48 51.41027 12.21285 456 ft 24 kts 266°
2026-05-07 01:48 51.41016 12.21015 448 ft 24 kts 266°
2026-05-07 01:49 51.41007 12.20801 445 ft 12 kts 265°
2026-05-07 01:49 51.41030 12.20682 429 ft 12 kts 329°
2026-05-07 01:49 51.41107 12.20715 431 ft 12 kts 37°
2026-05-07 01:49 51.41168 12.20807 433 ft 12 kts 55°
2026-05-07 01:50 51.41183 12.20939 449 ft 13 kts 84°
2026-05-07 01:50 51.41204 12.21355 455 ft 72 kts 86°
2026-05-07 01:50 51.41256 12.22516 467 ft 134 kts 85°
2026-05-07 01:50 51.41335 12.24249 645 ft 168 kts 85°
2026-05-07 01:51 51.41424 12.26134 1314 ft 170 kts 84°
2026-05-07 01:51 51.41513 12.28022 2066 ft 172 kts 85°
2026-05-07 01:51 51.41615 12.30014 2537 ft 192 kts 86°
2026-05-07 01:51 51.41736 12.32316 2780 ft 223 kts 87°
2026-05-07 01:52 51.41879 12.34930 3170 ft 246 kts 86°
2026-05-07 01:52 51.42053 12.37697 3819 ft 255 kts 81°
2026-05-07 01:52 51.42781 12.40350 4429 ft 269 kts 51°
2026-05-07 01:52 51.44288 12.42164 5219 ft 276 kts 19°
2026-05-07 01:53 51.46175 12.42549 6205 ft 275 kts 353°
2026-05-07 01:53 51.48039 12.41910 7049 ft 277 kts 344°
2026-05-07 01:53 51.49922 12.41093 7832 ft 282 kts 343°
2026-05-07 01:53 51.51820 12.40267 8751 ft 283 kts 343°
2026-05-07 01:54 51.53732 12.39442 9628 ft 287 kts 344°
2026-05-07 01:54 51.55615 12.38397 10292 ft 290 kts 328°
2026-05-07 01:54 51.57090 12.36105 10578 ft 309 kts 299°
2026-05-07 01:54 51.57671 12.33969 10712 ft 320 kts 287°
2026-05-07 01:55 51.58379 12.30426 10896 ft 346 kts 287°
2026-05-07 01:55 51.59432 12.25405 11508 ft 367 kts 288°
2026-05-07 01:55 51.60314 12.21531 12223 ft 369 kts 294°
2026-05-07 01:55 51.61843 12.18145 12858 ft 382 kts 316°
2026-05-07 01:56 51.63285 12.16429 13431 ft 381 kts 327°
2026-05-07 01:56 51.65591 12.14200 14014 ft 393 kts 328°
2026-05-07 01:56 51.67892 12.11787 14530 ft 395 kts 320°
2026-05-07 01:56 51.69631 12.08363 15131 ft 398 kts 295°
2026-05-07 01:57 51.70502 12.04156 16008 ft 396 kts 278°
2026-05-07 01:57 51.70616 11.99751 16770 ft 393 kts 265°
2026-05-07 01:57 51.70395 11.95320 17378 ft 400 kts 263°
2026-05-07 01:57 51.70136 11.90822 18107 ft 405 kts 263°
2026-05-07 01:58 51.69871 11.86290 18819 ft 407 kts 263°
2026-05-07 01:58 51.69615 11.81728 19528 ft 410 kts 263°
2026-05-07 01:58 51.69368 11.77160 20301 ft 410 kts 263°
2026-05-07 01:58 51.69128 11.72584 21146 ft 409 kts 263°
2026-05-07 01:59 51.68893 11.68017 21915 ft 409 kts 264°
2026-05-07 01:59 51.68661 11.63474 21994 ft 406 kts 264°
2026-05-07 01:59 51.68428 11.58953 22008 ft 404 kts 263°
2026-05-07 01:59 51.68193 11.54434 22006 ft 405 kts 263°
2026-05-07 02:00 51.67965 11.50096 22006 ft 406 kts 263°
2026-05-07 02:00 51.67717 11.45382 22003 ft 406 kts 263°
2026-05-07 02:00 51.67476 11.40850 22002 ft 406 kts 263°
2026-05-07 02:00 51.67233 11.36318 22005 ft 406 kts 263°
2026-05-07 02:01 51.66915 11.31889 22004 ft 400 kts 255°
2026-05-07 02:01 51.65846 11.27795 22024 ft 398 kts 236°
2026-05-07 02:01 51.64051 11.24334 22016 ft 398 kts 221°
2026-05-07 02:01 51.61845 11.21751 22014 ft 399 kts 212°
2026-05-07 02:02 51.59498 11.19347 22015 ft 401 kts 212°
2026-05-07 02:02 51.57141 11.16930 22015 ft 402 kts 213°
2026-05-07 02:02 51.54793 11.14475 22006 ft 403 kts 213°
2026-05-07 02:02 51.52451 11.11992 22014 ft 403 kts 213°
2026-05-07 02:03 51.50117 11.09493 22003 ft 401 kts 216°
2026-05-07 02:03 51.48091 11.06434 21987 ft 403 kts 234°
2026-05-07 02:03 51.46705 11.02559 21999 ft 402 kts 242°
2026-05-07 02:03 51.45384 10.98586 21998 ft 407 kts 240°
2026-05-07 02:04 51.44019 10.94608 21999 ft 407 kts 240°
2026-05-07 02:04 51.42643 10.90652 21994 ft 406 kts 240°
2026-05-07 02:04 51.41262 10.86711 21995 ft 405 kts 240°
2026-05-07 02:04 51.39882 10.82781 21992 ft 405 kts 240°
2026-05-07 02:05 51.38501 10.78857 21995 ft 404 kts 240°
2026-05-07 02:05 51.37121 10.74937 21993 ft 404 kts 240°
2026-05-07 02:05 51.35740 10.71020 21997 ft 404 kts 240°
2026-05-07 02:05 51.34358 10.67106 21995 ft 404 kts 240°
2026-05-07 02:06 51.32974 10.63191 21995 ft 404 kts 240°
2026-05-07 02:06 51.31588 10.59275 21994 ft 405 kts 239°
2026-05-07 02:06 51.30198 10.55352 21996 ft 406 kts 239°
2026-05-07 02:06 51.28802 10.51425 22004 ft 407 kts 240°
2026-05-07 02:07 51.27371 10.47524 21998 ft 407 kts 237°
2026-05-07 02:07 51.23916 10.40375 22006 ft 408 kts 230°
2026-05-07 02:07 51.22120 10.36872 22003 ft 408 kts 230°
2026-05-07 02:08 51.20335 10.33354 22001 ft 408 kts 231°
2026-05-07 02:08 51.18555 10.29829 22000 ft 408 kts 231°
2026-05-07 02:08 51.16772 10.26316 21997 ft 405 kts 229°
2026-05-07 02:08 51.14656 10.23425 21999 ft 403 kts 209°
2026-05-07 02:09 51.12057 10.21770 22010 ft 405 kts 193°
2026-05-07 02:09 51.09250 10.21290 22003 ft 408 kts 181°
2026-05-07 02:09 51.06394 10.21288 22008 ft 412 kts 180°
2026-05-07 02:09 51.03528 10.21307 22017 ft 412 kts 180°
2026-05-07 02:10 51.00662 10.21306 22014 ft 412 kts 180°
2026-05-07 02:10 50.97836 10.21280 22009 ft 411 kts 181°
2026-05-07 02:10 50.94977 10.21235 22000 ft 411 kts 181°
2026-05-07 02:10 50.92123 10.21180 22011 ft 410 kts 181°
2026-05-07 02:11 50.89236 10.21123 22004 ft 409 kts 181°
2026-05-07 02:11 50.86396 10.21064 22005 ft 409 kts 181°
2026-05-07 02:11 50.83574 10.20850 21996 ft 404 kts 189°
2026-05-07 02:11 50.80960 10.19402 22017 ft 408 kts 210°
2026-05-07 02:12 50.78717 10.16626 22016 ft 413 kts 226°
2026-05-07 02:12 50.77030 10.12977 21983 ft 410 kts 242°
2026-05-07 02:12 50.75764 10.08943 22011 ft 410 kts 244°
2026-05-07 02:12 50.74523 10.04881 22000 ft 411 kts 244°
2026-05-07 02:13 50.73273 10.00817 22008 ft 412 kts 244°
2026-05-07 02:13 50.72008 9.96760 22012 ft 412 kts 243°
2026-05-07 02:13 50.70728 9.92710 22007 ft 412 kts 243°
2026-05-07 02:13 50.69438 9.88666 22012 ft 413 kts 243°
2026-05-07 02:14 50.68144 9.84625 22017 ft 413 kts 243°
2026-05-07 02:14 50.66850 9.80590 22019 ft 412 kts 243°
2026-05-07 02:14 50.65557 9.76573 22013 ft 410 kts 243°
2026-05-07 02:14 50.64263 9.72588 21992 ft 406 kts 240°
2026-05-07 02:15 50.62616 9.69006 22029 ft 405 kts 225°
2026-05-07 02:15 50.60428 9.66232 22030 ft 405 kts 212°
2026-05-07 02:15 50.57886 9.64336 22019 ft 405 kts 200°
2026-05-07 02:15 50.55224 9.62850 22028 ft 407 kts 200°
2026-05-07 02:16 50.52568 9.61288 22028 ft 408 kts 201°
2026-05-07 02:16 50.49988 9.59491 21992 ft 405 kts 212°
2026-05-07 02:16 50.47893 9.56562 22026 ft 407 kts 231°
2026-05-07 02:16 50.46402 9.52751 22019 ft 414 kts 248°
2026-05-07 02:17 50.45525 9.48449 22021 ft 415 kts 255°
2026-05-07 02:17 50.44756 9.44083 22017 ft 415 kts 255°
2026-05-07 02:17 50.43978 9.39717 22014 ft 416 kts 254°
2026-05-07 02:17 50.43179 9.35361 22024 ft 415 kts 254°
2026-05-07 02:18 50.42363 9.31027 22011 ft 415 kts 253°
2026-05-07 02:18 50.41548 9.26758 22003 ft 402 kts 253°
2026-05-07 02:18 50.40728 9.22656 22001 ft 387 kts 251°
2026-05-07 02:18 50.39814 9.18713 22022 ft 384 kts 250°
2026-05-07 02:19 50.38878 9.14820 22006 ft 380 kts 250°
2026-05-07 02:19 50.37959 9.10941 22017 ft 379 kts 250°
2026-05-07 02:19 50.37050 9.07062 22025 ft 379 kts 250°
2026-05-07 02:19 50.36146 9.03183 22024 ft 379 kts 250°
2026-05-07 02:20 50.35243 8.99304 22026 ft 379 kts 250°
2026-05-07 02:20 50.34337 8.95424 22025 ft 380 kts 250°
2026-05-07 02:20 50.33362 8.91601 22001 ft 376 kts 241°
2026-05-07 02:20 50.31739 8.88399 21903 ft 377 kts 221°
2026-05-07 02:21 50.29512 8.86278 21253 ft 379 kts 201°
2026-05-07 02:21 50.26926 8.85460 20482 ft 382 kts 183°
2026-05-07 02:21 50.24294 8.85826 19618 ft 380 kts 165°
2026-05-07 02:21 50.21960 8.87661 18747 ft 377 kts 139°
2026-05-07 02:22 50.20392 8.90865 17877 ft 373 kts 112°
2026-05-07 02:22 50.19891 8.94778 16951 ft 368 kts 86°
2026-05-07 02:22 50.20547 8.98571 16047 ft 362 kts 58°
2026-05-07 02:22 50.22109 9.01583 15190 ft 355 kts 46°
2026-05-07 02:23 50.23606 9.04699 14386 ft 366 kts 59°
2026-05-07 02:23 50.24744 9.08286 13814 ft 369 kts 64°
2026-05-07 02:23 50.25802 9.11918 13286 ft 359 kts 64°
2026-05-07 02:23 50.26849 9.15337 12759 ft 346 kts 62°
2026-05-07 02:24 50.27953 9.18687 12364 ft 346 kts 61°
2026-05-07 02:24 50.29059 9.21936 12158 ft 340 kts 60°
2026-05-07 02:24 50.30188 9.25230 11729 ft 341 kts 62°
2026-05-07 02:24 50.31209 9.28592 11305 ft 343 kts 69°
2026-05-07 02:25 50.32016 9.32088 11066 ft 340 kts 71°
2026-05-07 02:25 50.32776 9.35570 10800 ft 337 kts 71°
2026-05-07 02:25 50.33359 9.39069 10366 ft 332 kts 87°
2026-05-07 02:25 50.33024 9.42621 9930 ft 332 kts 113°
2026-05-07 02:26 50.31808 9.45621 9725 ft 319 kts 136°
2026-05-07 02:26 50.30120 9.47600 9494 ft 292 kts 156°
2026-05-07 02:26 50.28166 9.48466 9349 ft 309 kts 176°
2026-05-07 02:26 50.26088 9.48415 9193 ft 290 kts 190°
2026-05-07 02:27 50.24248 9.47543 8695 ft 267 kts 214°
2026-05-07 02:27 50.23132 9.45497 8691 ft 246 kts 252°
2026-05-07 02:27 50.22962 9.42800 8730 ft 257 kts 269°
2026-05-07 02:27 50.22773 9.39956 8761 ft 268 kts 258°
2026-05-07 02:28 50.22305 9.37145 8746 ft 266 kts 253°
2026-05-07 02:28 50.21733 9.34416 8732 ft 262 kts 251°
2026-05-07 02:28 50.21135 9.31739 8670 ft 262 kts 251°
2026-05-07 02:28 50.20519 9.29028 8321 ft 267 kts 250°
2026-05-07 02:29 50.19893 9.26307 7998 ft 264 kts 250°
2026-05-07 02:29 50.19275 9.23633 7700 ft 259 kts 250°
2026-05-07 02:29 50.18668 9.21009 7412 ft 255 kts 250°
2026-05-07 02:29 50.18069 9.18422 7124 ft 254 kts 252°
2026-05-07 02:30 50.17513 9.15801 6855 ft 255 kts 252°
2026-05-07 02:30 50.16941 9.13166 6578 ft 258 kts 251°
2026-05-07 02:30 50.16331 9.10517 6266 ft 260 kts 250°
2026-05-07 02:30 50.15709 9.07887 5980 ft 256 kts 251°
2026-05-07 02:31 50.15096 9.05304 5674 ft 252 kts 251°
2026-05-07 02:31 50.14492 9.02759 5390 ft 249 kts 251°
2026-05-07 02:31 50.13900 9.00251 5267 ft 240 kts 251°
2026-05-07 02:31 50.13346 8.97927 5226 ft 219 kts 251°
2026-05-07 02:32 50.12832 8.95769 5062 ft 209 kts 251°
2026-05-07 02:32 50.12338 8.93691 4916 ft 202 kts 252°
2026-05-07 02:32 50.11860 8.91675 4633 ft 191 kts 252°
2026-05-07 02:32 50.11411 8.89787 4387 ft 182 kts 252°
2026-05-07 02:33 50.10981 8.87971 4174 ft 176 kts 252°
2026-05-07 02:33 50.10559 8.86190 4067 ft 174 kts 252°
2026-05-07 02:33 50.10133 8.84399 3885 ft 180 kts 253°
2026-05-07 02:33 50.09701 8.82579 3639 ft 177 kts 252°
2026-05-07 02:34 50.09279 8.80808 3390 ft 170 kts 252°
2026-05-07 02:34 50.08871 8.79090 3192 ft 169 kts 253°
2026-05-07 02:34 50.08458 8.77351 2969 ft 173 kts 253°
2026-05-07 02:34 50.08049 8.75634 2740 ft 165 kts 253°
2026-05-07 02:35 50.07658 8.73996 2485 ft 158 kts 253°
2026-05-07 02:35 50.07280 8.72404 2310 ft 158 kts 253°
2026-05-07 02:35 50.06899 8.70799 2098 ft 156 kts 253°
2026-05-07 02:35 50.06524 8.69224 1861 ft 155 kts 253°
2026-05-07 02:36 50.06150 8.67652 1647 ft 155 kts 253°
2026-05-07 02:36 50.05776 8.66084 1439 ft 154 kts 252°
2026-05-07 02:36 50.05402 8.64513 1202 ft 155 kts 251°
2026-05-07 02:36 50.05009 8.62941 977 ft 160 kts 251°
2026-05-07 02:37 50.04631 8.61316 825 ft 157 kts 252°
2026-05-07 02:37 50.04262 8.59736 582 ft 156 kts 251°
2026-05-07 02:37 50.03882 8.58161 384 ft 155 kts 252°
2026-05-07 02:37 50.03539 8.56702 359 ft 122 kts 249°
2026-05-07 02:38 50.03308 8.55730 353 ft 69 kts 249°
2026-05-07 02:38 50.03198 8.55272 353 ft 33 kts 249°
2026-05-07 02:38 50.03123 8.54959 351 ft 30 kts 250°
2026-05-07 02:38 50.03051 8.54655 347 ft 30 kts 250°
2026-05-07 02:39 50.03002 8.54343 335 ft 30 kts 273°
2026-05-07 02:39 50.03021 8.54106 337 ft 13 kts 280°
2026-05-07 02:39 50.03036 8.53965 335 ft 13 kts 279°
2026-05-07 02:39 50.03050 8.53824 339 ft 13 kts 278°
2026-05-07 02:40 50.03063 8.53682 337 ft 13 kts 278°
2026-05-07 02:40 50.03121 8.53583 335 ft 13 kts 339°
2026-05-07 02:40 50.03207 8.53533 351 ft 13 kts 339°
2026-05-07 02:40 50.03290 8.53473 348 ft 13 kts 320°
2026-05-07 02:41 50.03327 8.53397 350 ft 13 kts 304°
2026-05-07 02:41 50.03395 8.53306 350 ft 13 kts 340°
2026-05-07 02:41 50.03468 8.53320 353 ft 9 kts 22°
2026-05-07 02:41 50.03499 8.53341 349 ft 0 kts 24°
2026-05-07 02:43 50.03532 8.53364 355 ft 14 kts 23°
2026-05-07 02:43 50.03610 8.53451 356 ft 14 kts 56°
2026-05-07 02:43 50.03662 8.53559 356 ft 11 kts 12°
2026-05-07 02:43 50.03741 8.53540 358 ft 11 kts 345°
2026-05-07 02:44 50.03802 8.53505 353 ft 8 kts 340°
2026-05-07 02:44 50.03816 8.53497 353 ft 0 kts 340°